• In Hungary
  • List of Countries
  • For 7 days
  • Water Temperature
  • Satellite Maps
  • Weather Map
  • News
  • Weather Widgets
  • user-avatar
    Login

    Hourly Weather Chikodi

    Today, 13 November, Tuesday

    Time Temperature Precipitation Wind Pressure Humidity
    00:00 +23°C° 0 mm 1 mps 702 mmHg 38%
    01:00 +22°C° 0 mm 1 mps 702 mmHg 39%
    02:00 +22°C° 0 mm 1 mps 702 mmHg 40%
    03:00 +21°C° 0 mm 1 mps 701 mmHg 40%
    04:00 +21°C° 0 mm 1 mps 701 mmHg 41%
    05:00 +21°C° 0 mm 1 mps 701 mmHg 43%
    06:00 +22°C° 0 mm 1 mps 702 mmHg 41%
    07:00 +23°C° 0 mm 2 mps 702 mmHg 39%
    08:00 +25°C° 0 mm 2 mps 703 mmHg 37%
    09:00 +27°C° 0 mm 2 mps 703 mmHg 33%
    10:00 +29°C° 0 mm 2 mps 703 mmHg 30%
    11:00 +30°C° 0 mm 2 mps 704 mmHg 24%
    12:00 +31°C° 0 mm 1 mps 703 mmHg 23%
    13:00 +32°C° 0 mm 1 mps 702 mmHg 22%
    14:00 +32°C° 0 mm 1 mps 702 mmHg 21%
    15:00 +31°C° 0 mm 1 mps 701 mmHg 25%
    16:00 +30°C° 0 mm 1 mps 701 mmHg 28%
    17:00 +28°C° 0 mm 1 mps 700 mmHg 32%
    18:00 +27°C° 0 mm 1 mps 701 mmHg 35%
    19:00 +26°C° 0 mm 1 mps 701 mmHg 37%
    20:00 +24°C° 0 mm 2 mps 701 mmHg 39%
    21:00 +24°C° 0 mm 1 mps 701 mmHg 43%
    22:00 +23°C° 0 mm 1 mps 701 mmHg 46%
    23:00 +22°C° 0 mm 1 mps 701 mmHg 50%

    Tomorrow, 14 November, Wednesday

    Time Temperature Precipitation Wind Pressure Humidity
    00:00 +22°C° 0 mm 1 mps 701 mmHg 51%
    01:00 +22°C° 0 mm 1 mps 701 mmHg 52%
    02:00 +21°C° 0 mm 1 mps 701 mmHg 53%
    03:00 +21°C° 0 mm 1 mps 701 mmHg 52%
    04:00 +21°C° 0 mm 1 mps 701 mmHg 52%
    05:00 +20°C° 0 mm 1 mps 701 mmHg 52%
    06:00 +22°C° 0 mm 1 mps 701 mmHg 48%
    07:00 +23°C° 0 mm 1 mps 702 mmHg 44%
    08:00 +25°C° 0 mm 1 mps 703 mmHg 40%
    09:00 +27°C° 0 mm 2 mps 703 mmHg 35%
    10:00 +29°C° 0 mm 2 mps 703 mmHg 30%
    11:00 +31°C° 0 mm 2 mps 703 mmHg 25%
    12:00 +31°C° 0 mm 2 mps 702 mmHg 24%
    13:00 +32°C° 0 mm 2 mps 702 mmHg 23%
    14:00 +34°C° 0 mm 2 mps 701 mmHg 21%
    15:00 +32°C° 0 mm 2 mps 701 mmHg 25%
    16:00 +30°C° 0 mm 2 mps 701 mmHg 28%
    17:00 +29°C° 0 mm 1 mps 701 mmHg 31%
    18:00 +28°C° 0 mm 1 mps 701 mmHg 33%
    19:00 +26°C° 0 mm 1 mps 702 mmHg 34%
    20:00 +25°C° 0 mm 1 mps 702 mmHg 36%
    21:00 +24°C° 0 mm 1 mps 702 mmHg 38%
    22:00 +24°C° 0 mm 1 mps 702 mmHg 39%
    23:00 +23°C° 0 mm 1 mps 702 mmHg 41%

    Day after tomorrow, 15 November, Thursday

    Time Temperature Precipitation Wind Pressure Humidity
    00:00 +23°C° 0 mm 1 mps 702 mmHg 42%
    01:00 +22°C° 0 mm 1 mps 702 mmHg 42%
    02:00 +22°C° 0 mm 1 mps 701 mmHg 43%
    03:00 +22°C° 0 mm 1 mps 701 mmHg 44%
    04:00 +21°C° 0 mm 1 mps 701 mmHg 45%
    05:00 +21°C° 0 mm 1 mps 701 mmHg 46%
    06:00 +21°C° 0 mm 2 mps 702 mmHg 45%
    07:00 +24°C° 0 mm 2 mps 703 mmHg 44%
    08:00 +25°C° 0 mm 2 mps 704 mmHg 43%
    09:00 +27°C° 0 mm 3 mps 704 mmHg 38%
    10:00 +29°C° 0 mm 4 mps 704 mmHg 34%
    11:00 +32°C° 0 mm 5 mps 704 mmHg 29%
    12:00 +33°C° 0 mm 5 mps 704 mmHg 27%
    13:00 +33°C° 0 mm 5 mps 703 mmHg 25%
    14:00 +34°C° 0 mm 5 mps 702 mmHg 23%
    15:00 +33°C° 0 mm 4 mps 702 mmHg 26%
    16:00 +31°C° 0 mm 3 mps 702 mmHg 30%
    17:00 +29°C° 0 mm 2 mps 702 mmHg 33%
    18:00 +28°C° 0 mm 2 mps 702 mmHg 34%
    19:00 +27°C° 0 mm 2 mps 702 mmHg 35%
    20:00 +26°C° 0 mm 2 mps 703 mmHg 36%
    21:00 +25°C° 0 mm 2 mps 703 mmHg 37%
    22:00 +24°C° 0 mm 2 mps 703 mmHg 39%
    23:00 +24°C° 0 mm 2 mps 703 mmHg 41%

    16 November, Friday

    Time Temperature Precipitation Wind Pressure Humidity
    00:00 +23°C° 0 mm 2 mps 703 mmHg 43%
    01:00 +23°C° 0 mm 2 mps 702 mmHg 45%
    02:00 +21°C° 0 mm 2 mps 702 mmHg 48%
    03:00 +21°C° 0 mm 2 mps 702 mmHg 50%
    04:00 +21°C° 0 mm 2 mps 702 mmHg 52%
    05:00 +20°C° 0 mm 2 mps 702 mmHg 55%
    06:00 +22°C° 0 mm 3 mps 703 mmHg 53%
    07:00 +24°C° 0 mm 3 mps 703 mmHg 51%
    08:00 +25°C° 0 mm 4 mps 704 mmHg 49%
    09:00 +27°C° 0 mm 4 mps 704 mmHg 43%
    10:00 +29°C° 0 mm 5 mps 704 mmHg 36%
    11:00 +32°C° 0 mm 6 mps 704 mmHg 30%
    12:00 +33°C° 0 mm 6 mps 704 mmHg 29%
    13:00 +33°C° 0 mm 5 mps 703 mmHg 29%
    14:00 +34°C° 0 mm 5 mps 702 mmHg 28%
    15:00 +33°C° 0 mm 4 mps 702 mmHg 31%
    16:00 +31°C° 0 mm 3 mps 702 mmHg 35%
    17:00 +30°C° 0 mm 3 mps 701 mmHg 39%
    18:00 +29°C° 0 mm 3 mps 702 mmHg 40%
    19:00 +27°C° 0 mm 3 mps 702 mmHg 42%
    20:00 +26°C° 0 mm 2 mps 703 mmHg 44%
    21:00 +26°C° 0 mm 2 mps 703 mmHg 46%
    22:00 +25°C° 0 mm 2 mps 703 mmHg 48%
    23:00 +25°C° 0 mm 2 mps 703 mmHg 49%

    17 November, Saturday

    Time Temperature Precipitation Wind Pressure Humidity
    00:00 +24°C° 0 mm 2 mps 702 mmHg 53%
    01:00 +24°C° 0 mm 2 mps 702 mmHg 57%
    02:00 +23°C° 0 mm 2 mps 701 mmHg 60%
    03:00 +23°C° 0 mm 2 mps 701 mmHg 65%
    04:00 +23°C° 0 mm 2 mps 701 mmHg 71%
    05:00 +21°C° 0 mm 2 mps 701 mmHg 76%
    06:00 +22°C° 0 mm 3 mps 702 mmHg 74%
    07:00 +25°C° 0 mm 4 mps 703 mmHg 73%
    08:00 +26°C° 0 mm 5 mps 704 mmHg 71%
    09:00 +28°C° 0 mm 5 mps 704 mmHg 62%
    10:00 +29°C° 0 mm 5 mps 704 mmHg 54%
    11:00 +32°C° 0 mm 5 mps 704 mmHg 46%
    12:00 +33°C° 0 mm 5 mps 703 mmHg 44%
    13:00 +33°C° 0 mm 5 mps 702 mmHg 42%
    14:00 +34°C° 0 mm 4 mps 701 mmHg 41%
    15:00 +33°C° 0 mm 4 mps 701 mmHg 44%
    16:00 +31°C° 0 mm 3 mps 701 mmHg 47%
    17:00 +30°C° 0 mm 3 mps 701 mmHg 51%
    18:00 +29°C° 0 mm 3 mps 701 mmHg 54%
    19:00 +29°C° 0 mm 3 mps 702 mmHg 57%
    20:00 +28°C° 0 mm 3 mps 702 mmHg 60%
    21:00 +27°C° 0 mm 2 mps 702 mmHg 62%
    22:00 +27°C° 0 mm 2 mps 702 mmHg 64%
    23:00 +26°C° 0 mm 2 mps 702 mmHg 66%

    18 November, Sunday

    Time Temperature Precipitation Wind Pressure Humidity
    00:00 +26°C° 0 mm 2 mps 702 mmHg 67%
    01:00 +25°C° 0 mm 2 mps 702 mmHg 69%
    02:00 +25°C° 0 mm 2 mps 701 mmHg 71%
    03:00 +24°C° 0 mm 2 mps 701 mmHg 73%
    04:00 +24°C° 0 mm 2 mps 701 mmHg 76%
    05:00 +24°C° 0 mm 2 mps 701 mmHg 79%
    06:00 +25°C° 0 mm 2 mps 702 mmHg 75%
    07:00 +26°C° 0 mm 3 mps 703 mmHg 72%
    08:00 +27°C° 0 mm 3 mps 704 mmHg 69%
    09:00 +28°C° 0 mm 4 mps 704 mmHg 62%
    10:00 +30°C° 0 mm 4 mps 704 mmHg 55%
    11:00 +33°C° 0 mm 4 mps 704 mmHg 48%
    12:00 +33°C° 0 mm 4 mps 703 mmHg 47%
    13:00 +33°C° 0 mm 4 mps 702 mmHg 47%
    14:00 +33°C° 0 mm 4 mps 701 mmHg 47%
    15:00 +31°C° 0.1 mm 3 mps 701 mmHg 49%
    16:00 +31°C° 0.1 mm 3 mps 701 mmHg 51%
    17:00 +30°C° 0.1 mm 2 mps 701 mmHg 54%
    18:00 +29°C° 0.1 mm 2 mps 702 mmHg 55%
    19:00 +29°C° 0.1 mm 2 mps 702 mmHg 57%
    20:00 +28°C° 0.1 mm 2 mps 703 mmHg 58%
    21:00 +27°C° 0 mm 2 mps 703 mmHg 60%
    22:00 +27°C° 0 mm 2 mps 703 mmHg 62%
    23:00 +27°C° 0 mm 2 mps 703 mmHg 64%
    Show more